Weather History for St. Johns, AZ

Change the Weather History Date:

Thursday, March 1, 2012

  Actual Average (KSOW) Record (KSOW)
Temperature  
Mean Temperature 45 °F -  
Max Temperature 55 °F 47 °F 70 °F (1986)
Min Temperature 35 °F 29 °F 6 °F (1987)
Degree Days  
Heating Degree Days 20    
Moisture  
Dew Point 12 °F    
Average Humidity 28    
Maximum Humidity 43    
Minimum Humidity 17    
Precipitation  
Precipitation 0.00 in - - ()
Sea Level Pressure  
Sea Level Pressure 29.82 in    
Wind  
Wind Speed 16 mph (SW)    
Max Wind Speed 32 mph    
Max Gust Speed 46 mph    
Visibility 10 miles    
Events      
Averages and records for this station are not official NWS values.
T = Trace of Precipitation, MM = Missing Value Source: NWS Daily Summary

Daily Weather History Graph

Daily Weather History Graph

Search for Another Location

Airport:

Trip Planner

Search our weather history database for the weather conditions in past years. The results will help you decide how hot, cold, wet, or windy it might be!

Date:

Astronomy

Mar. 01, 2012 Rise Set
Actual Time 6:45 AM MST 6:14 PM MST
Civil Twilight 6:20 AM MST 6:39 PM MST
Nautical Twilight 5:51 AM MST 7:08 PM MST
Astronomical Twilight 5:22 AM MST 7:37 PM MST
Moon 11:48 AM MST (3/1) 1:36 AM MST (3/1)
Length of Visible Light 12h 18m
Length of Day
11h 28m
First Quarter, 57% of the Moon is Illuminated
Mar 1
First Quarter
Mar 8
Full
Mar 14
Last Quarter
Mar 22
New
Mar 30
First Quarter

Hourly Weather History & Observations

Time (MST) Temp. Windchill Dew Point Humidity Pressure Visibility Wind Dir Wind Speed Gust Speed Precip Events Conditions
12:54 AM 37.9 °F 34.4 °F 10.9 °F 33% 29.94 in 10.0 mi WSW 4.6 mph - N/A   Clear
1:54 AM 35.6 °F 29.9 °F 12.2 °F 38% 30.00 in 10.0 mi SSE 6.9 mph - N/A   Clear
2:54 AM 37.9 °F - 12.0 °F 35% 29.85 in 10.0 mi Calm Calm - N/A   Clear
3:54 AM 39.0 °F 30.6 °F 14.0 °F 36% 29.82 in 10.0 mi SW 15.0 mph 24.2 mph N/A   Clear
4:54 AM 39.9 °F 28.8 °F 14.0 °F 35% 29.80 in 10.0 mi SW 27.6 mph 43.7 mph N/A   Clear
5:54 AM 41.0 °F 32.2 °F 10.4 °F 29% 29.93 in 10.0 mi WSW 18.4 mph 28.8 mph N/A   Clear
6:54 AM 39.0 °F 28.8 °F 12.9 °F 34% 29.84 in 10.0 mi SW 21.9 mph 26.5 mph N/A   Clear
7:54 AM 43.0 °F 34.8 °F 12.9 °F 30% 29.87 in 10.0 mi SW 18.4 mph 29.9 mph N/A   Clear
8:54 AM 46.4 °F 38.3 °F 14.0 °F 27% 29.96 in 10.0 mi SW 23.0 mph 33.4 mph N/A   Clear
9:54 AM 50.0 °F - 12.2 °F 22% 29.96 in 10.0 mi SW 31.1 mph 41.4 mph N/A   Clear
10:54 AM 51.1 °F - 10.9 °F 20% 29.85 in 10.0 mi SW 25.3 mph 38.0 mph N/A   Clear
11:54 AM 54.0 °F - 12.0 °F 19% 29.81 in 10.0 mi WSW 32.2 mph 46.0 mph N/A   Clear
12:54 PM 55.0 °F - 12.9 °F 19% 29.75 in 10.0 mi SW 29.9 mph 39.1 mph N/A   Clear
1:54 PM 55.4 °F - 12.2 °F 18% 29.85 in 10.0 mi WSW 29.9 mph 36.8 mph N/A   Clear
2:54 PM 55.0 °F - 12.9 °F 19% 29.70 in 10.0 mi SW 28.8 mph 38.0 mph N/A   Clear
3:54 PM 55.0 °F - 10.0 °F 17% 29.70 in 10.0 mi WSW 21.9 mph 39.1 mph N/A   Clear
4:54 PM 53.1 °F - 12.0 °F 20% 29.69 in 10.0 mi WSW 27.6 mph 35.7 mph N/A   Clear
5:54 PM 48.9 °F - 10.9 °F 22% 29.70 in 10.0 mi SW 21.9 mph 33.4 mph N/A   Clear
6:54 PM 45.0 °F 37.1 °F 10.0 °F 24% 29.75 in 10.0 mi SW 19.6 mph 29.9 mph N/A   Clear
7:54 PM 43.0 °F 33.1 °F 10.9 °F 27% 29.76 in 10.0 mi SW 26.5 mph 34.5 mph N/A   Clear
8:54 PM 42.1 °F 32.8 °F 12.0 °F 29% 29.75 in 10.0 mi SW 21.9 mph 31.1 mph N/A   Clear
9:54 PM 39.9 °F 31.1 °F 12.9 °F 33% 29.77 in 10.0 mi SW 17.3 mph 26.5 mph N/A   Clear
10:54 PM 37.0 °F 30.4 °F 14.0 °F 39% 29.78 in 10.0 mi SW 9.2 mph - N/A   Clear
11:54 PM 36.0 °F 28.5 °F 15.1 °F 43% 29.75 in 10.0 mi SW 10.4 mph - N/A   Clear